Location: Unspecified
(0.0000°N, 0.0000°E)
Time: 11:24:11
(UTC+00:00)

Explorer 11/Cluster Stage 4 - Pass Details

Date: 02 October 2020
Orbit: 467 x 1258 km, 28.8° (Epoch: 28 October)

Event Time Altitude Azimuth Distance (km) Brightness Sun altitude
Rises 07:34:36 0° 293° (WNW) 4,131 9.7 26.3°
Reaches altitude 10° 07:37:29 10° 290° (WNW) 3,205 9.3 27.0°
Maximum altitude 07:45:37 62° 211° (SSW) 1,380 8.1 29.0°
Drops below altitude 10° 07:53:24 10° 132° (SE) 3,076 10.5 31.0°
Sets 07:56:09 0° 128° (SE) 3,956 10.9 31.6°
